Probability
29 29 32 29 29 26 26 23 10 10 3 0 0 0 0 0 0 6 0 0 0 0 0 0 0 0 0 0 0 0 0 0 0 0 3 6 3 13
26 29 29 26 19 26 35 23 10 10 10 3 6 3 3 10 0 0 0 0 0 0 0 0 0 0 0 0 0 0 0 0 0 0 0 0 0 0
26 26 26 26 16 19 19 16 13 13 13 10 3 6 10 3 0 3 3 0 0 0 0 0 0 0 0 0 0 0 0 0 0 0 0 0 0 0
23 23 19 19 16 16 13 10 13 13 13 10 6 6 6 0 0 3 0 0 0 0 0 0 0 0 0 0 0 0 0 0 0 0 0 0 0 0
16 13 16 13 13 10 10 19 16 16 16 13 10 3 0 3 0 0 0 0 0 0 0 0 0 0 0 0 0 0 0 0 0 0 0 0 0 0
13 13 16 16 16 13 10 10 13 13 10 13 10 3 3 0 0 0 0 0 0 0 0 0 0 0 0 0 0 0 0 0 0 0 0 0 0 0
13 16 16 16 13 10 13 6 6 10 10 6 10 6 6 3 3 3 3 0 0 0 0 0 0 0 0 0 0 0 0 0 0 0 0 0 0 0
13 13 13 13 10 3 3 3 3 3 3 3 3 3 6 0 3 3 3 3 0 0 0 0 0 0 0 0 0 0 0 0 0 0 0 0 0 0
6 10 10 10 10 10 3 0 3 3 3 3 6 3 0 3 3 3 6 6 3 0 0 0 0 0 0 0 0 0 0 0 0 0 0 0 0 0
3 6 6 10 10 10 6 6 3 3 3 3 3 3 0 0 0 0 0 3 3 0 0 0 0 0 0 0 0 0 0 0 0 0 0 0 0 0
3 3 6 6 6 3 3 3 3 6 0 0 0 0 0 0 0 0 3 3 0 0 0 0 0 0 0 0 0 0 0 0 0 0 0 0 0 0
3 3 3 3 6 0 3 3 3 3 3 6 0 0 0 0 0 0 0 3 0 0 0 0 0 0 0 0 0 0 0 0 0 0 0 0 0 0
3 3 3 3 0 0 0 6 3 3 0 0 3 3 0 0 0 0 0 0 3 3 0 0 0 0 0 0 0 0 0 0 0 0 0 0 0 0
3 3 3 3 0 0 0 0 0 0 0 0 0 3 0 0 0 0 0 0 0 3 0 0 0 0 0 0 0 0 0 0 0 0 0 0 0 0
0 0 0 0 0 0 0 0 0 0 0 0 0 0 0 0 0 0 0 0 0 0 0 0 0 0 0 0 0 0 0 0 0 0 0 0 0 0
0 0 0 0 0 0 0 0 0 0 0 0 0 0 0 0 0 0 0 0 0 0 0 0 0 0 0 0 0 0 0 0 0 0 0 0 0 0
0 0 0 0 0 0 0 0 0 0 0 0 0 0 0 0 0 0 0 0 0 0 0 0 0 0 0 0 0 0 0 0 0 0 0 0 0 0
0 0 0 0 0 0 0 0 0 0 0 0 0 0 0 0 0 0 0 0 0 0 0 0 0 0 0 0 0 0 0 0 0 0 0 0 0 0
0 0 0 0 0 0 0 0 0 0 0 0 0 0 0 0 0 0 0 0 0 0 0 0 0 0 0 0 0 0 0 0 0 0 0 0 0 0
0 0 0 0 0 0 0 0 0 0 0 0 0 0 0 0 0 0 0 0 0 0 0 0 0 0 0 0 0 0 0 0 0 0 0 0 0 0
0 0 0 0 0 0 0 0 0 0 0 0 0 0 0 0 0 0 0 0 0 0 0 0 0 0 0 0 0 0 0 0 0 0 0 0 0 0
0 0 0 0 0 0 0 0 0 0 0 0 0 0 0 0 0 0 0 0 0 0 0 0 0 0 0 0 0 0 0 0 0 0 0 0 0 0
0 0 0 0 0 0 0 0 0 0 0 0 0 0 0 0 0 0 0 0 0 0 0 0 0 0 0 0 0 0 0 0 0 0 0 0 0 0
Height
5874 5872 5871 5869 5868 5866 5864 5863 5862 5861 5859 5857 5855 5853 5852 5851 5849 5848 5847 5846 5845 5844 5844 5843 5843 5843 5842 5842 5842 5842 5841 5841 5840 5840 5839 5838 5838 5837
5868 5867 5865 5863 5862 5860 5859 5857 5856 5855 5853 5851 5849 5847 5845 5844 5842 5841 5840 5839 5838 5837 5837 5836 5836 5836 5836 5835 5835 5835 5835 5834 5833 5833 5832 5832 5831 5830
5862 5861 5859 5857 5856 5854 5853 5851 5850 5848 5847 5845 5843 5841 5839 5837 5835 5834 5833 5833 5832 5831 5830 5829 5829 5829 5828 5828 5828 5828 5828 5827 5826 5826 5825 5825 5824 5823
5856 5854 5853 5851 5849 5848 5846 5845 5843 5842 5840 5839 5837 5834 5832 5830 5829 5827 5826 5825 5825 5824 5823 5822 5822 5821 5821 5821 5821 5820 5820 5820 5819 5819 5818 5818 5817 5816
5850 5848 5846 5844 5842 5841 5839 5838 5836 5835 5833 5832 5830 5828 5826 5824 5822 5820 5819 5819 5818 5817 5816 5815 5814 5813 5813 5813 5813 5813 5812 5812 5812 5811 5811 5810 5809 5808
5842 5841 5839 5837 5835 5834 5832 5831 5829 5828 5826 5825 5823 5821 5819 5817 5815 5814 5813 5812 5811 5810 5809 5808 5806 5805 5805 5805 5805 5804 5804 5804 5804 5804 5803 5802 5801 5801
5835 5833 5831 5829 5827 5826 5824 5823 5822 5820 5819 5817 5816 5814 5812 5811 5809 5807 5806 5805 5804 5803 5802 5801 5800 5799 5798 5797 5796 5796 5795 5795 5795 5795 5795 5794 5793 5792
5827 5825 5822 5821 5819 5817 5816 5814 5813 5812 5811 5809 5807 5806 5804 5803 5802 5800 5799 5798 5797 5796 5794 5793 5792 5791 5790 5789 5788 5787 5787 5786 5786 5786 5786 5785 5784 5784
5818 5816 5814 5812 5810 5809 5807 5806 5804 5803 5802 5800 5799 5797 5796 5795 5793 5792 5791 5789 5788 5786 5785 5784 5783 5782 5781 5780 5779 5778 5778 5777 5777 5777 5777 5776 5775 5775
5809 5807 5805 5803 5802 5800 5798 5796 5795 5793 5792 5790 5789 5788 5787 5786 5784 5784 5782 5781 5779 5777 5776 5775 5773 5772 5771 5770 5769 5769 5768 5768 5768 5768 5768 5767 5767 5766
5800 5798 5796 5794 5792 5790 5789 5787 5785 5784 5782 5780 5779 5778 5777 5776 5775 5774 5772 5771 5770 5768 5766 5765 5764 5763 5762 5761 5760 5759 5759 5759 5759 5759 5759 5759 5758 5758
5790 5788 5786 5784 5782 5780 5778 5777 5775 5774 5772 5770 5769 5768 5766 5765 5764 5763 5762 5760 5759 5759 5757 5756 5755 5754 5753 5752 5751 5750 5750 5750 5750 5750 5750 5750 5749 5749
5780 5778 5775 5773 5771 5769 5767 5766 5764 5763 5761 5760 5758 5757 5755 5754 5753 5752 5751 5750 5749 5749 5747 5746 5745 5744 5743 5743 5742 5741 5741 5741 5741 5741 5741 5741 5741 5740
5769 5767 5765 5763 5760 5758 5756 5754 5753 5751 5750 5749 5748 5746 5745 5744 5743 5742 5741 5740 5739 5738 5737 5736 5735 5734 5734 5733 5733 5732 5732 5731 5732 5732 5732 5731 5731 5731
5758 5756 5754 5752 5750 5747 5745 5743 5742 5740 5739 5738 5737 5735 5734 5733 5732 5731 5731 5730 5729 5728 5727 5726 5725 5724 5723 5723 5723 5723 5722 5722 5722 5722 5722 5722 5722 5722
5747 5745 5743 5741 5738 5736 5734 5732 5730 5729 5727 5726 5725 5724 5723 5722 5721 5720 5720 5719 5719 5717 5716 5715 5714 5714 5714 5713 5713 5713 5713 5713 5713 5713 5713 5713 5713 5713
5736 5734 5732 5730 5727 5725 5723 5721 5720 5718 5716 5715 5714 5713 5711 5711 5710 5709 5709 5708 5708 5707 5706 5705 5704 5703 5703 5703 5704 5704 5704 5704 5704 5704 5704 5704 5704 5704
5725 5723 5720 5718 5716 5714 5712 5710 5709 5707 5705 5704 5703 5702 5700 5700 5699 5698 5697 5697 5697 5696 5695 5695 5694 5693 5693 5693 5694 5694 5694 5694 5694 5694 5694 5695 5695 5695
5714 5712 5709 5707 5705 5703 5701 5699 5698 5697 5695 5693 5692 5691 5690 5689 5688 5687 5686 5686 5686 5685 5684 5684 5683 5683 5683 5684 5684 5684 5684 5684 5684 5684 5685 5685 5686 5686
5704 5701 5699 5697 5695 5693 5691 5689 5688 5686 5685 5683 5682 5681 5679 5678 5677 5676 5676 5675 5675 5674 5674 5673 5673 5673 5673 5674 5674 5673 5673 5673 5674 5674 5675 5675 5676 5676
5693 5691 5689 5687 5685 5683 5681 5679 5678 5676 5675 5673 5672 5671 5669 5668 5667 5666 5665 5664 5664 5664 5663 5663 5663 5662 5662 5663 5663 5663 5663 5663 5663 5664 5664 5665 5666 5666
5683 5681 5679 5677 5674 5673 5671 5669 5668 5666 5665 5663 5662 5661 5659 5658 5657 5656 5655 5654 5654 5653 5652 5652 5652 5651 5651 5651 5652 5652 5653 5653 5653 5653 5654 5655 5655 5656
5673 5670 5668 5666 5664 5662 5661 5659 5658 5656 5655 5653 5652 5650 5649 5648 5647 5646 5645 5644 5643 5642 5642 5642 5641 5641 5640 5640 5640 5641 5642 5642 5643 5643 5644 5644 5645 5647
Wind_Speed
19 20 20 19 20 20 20 20 20 20 20 21 21 21 21 21 22 23 22 22 22 22 23 23 23 22 22 23 24 23 23 23 23 23 24 24 23 23
20 21 21 21 21 21 21 22 22 22 22 23 23 23 24 24 24 24 23 22 22 23 23 24 24 23 23 23 23 23 23 23 23 23 24 24 24 24
22 22 23 24 23 24 24 24 23 23 23 23 24 24 24 25 25 25 24 23 23 22 24 25 25 25 24 24 24 24 24 24 24 25 24 24 24 25
23 23 23 24 24 25 25 25 25 24 24 24 24 25 24 24 24 24 24 24 25 24 25 26 26 26 25 25 25 25 25 25 25 25 26 26 26 26
26 25 25 26 26 26 26 26 26 25 25 24 24 24 24 24 24 24 24 24 25 25 26 27 27 26 26 26 26 26 26 26 26 26 26 26 27 27
27 27 28 28 28 28 27 27 27 26 26 25 24 25 25 25 25 24 24 26 26 26 27 27 27 26 27 27 27 27 27 27 27 27 27 27 27 28
29 29 29 29 29 29 29 29 28 28 27 26 26 26 26 26 26 25 25 26 26 26 27 27 27 27 28 28 28 28 28 28 28 28 28 28 28 28
29 29 30 30 30 30 30 30 30 30 29 29 28 28 28 27 27 27 27 27 27 27 28 29 29 29 30 30 30 30 29 29 29 29 29 29 29 30
31 30 30 30 30 31 31 31 31 31 31 31 30 30 30 29 29 29 29 29 28 29 30 29 30 30 31 31 31 31 30 29 30 30 30 29 29 29
32 32 32 31 32 32 33 33 32 33 33 33 33 32 32 32 31 31 31 31 30 30 31 30 30 31 31 31 30 30 30 30 30 30 29 29 28 29
33 33 32 32 33 33 33 34 34 34 35 35 35 34 34 34 34 33 33 33 32 32 32 31 30 30 30 31 31 30 30 30 31 31 30 29 29 28
35 34 34 34 35 35 35 34 34 35 35 35 35 36 36 35 35 34 33 33 32 32 32 32 31 31 30 30 30 30 30 30 30 30 29 29 29 29
35 36 36 36 36 36 36 36 36 36 36 35 35 35 35 35 34 34 34 34 33 32 32 32 32 31 30 30 30 30 30 30 30 30 30 29 28 28
36 36 36 36 36 36 36 36 36 36 35 35 35 35 35 35 35 34 33 33 33 33 33 33 33 32 31 31 31 31 31 31 31 30 30 29 29 29
36 36 36 35 36 36 36 36 36 36 35 35 35 35 35 35 34 34 33 33 33 33 32 32 32 31 31 30 30 30 30 30 29 28 28 28 29 29
36 36 36 36 35 35 35 36 36 35 35 35 35 35 35 34 34 34 34 34 34 34 33 33 32 31 30 29 29 29 28 28 28 27 27 27 28 28
36 36 36 36 35 35 35 35 35 34 34 34 34 34 34 34 34 34 34 34 34 33 32 32 31 30 29 29 28 28 29 29 29 29 29 28 28 28
36 36 36 35 35 35 35 34 33 33 33 33 33 33 34 34 34 34 34 34 34 33 32 32 31 31 30 29 29 29 30 30 30 30 30 30 29 29
35 35 34 34 34 34 34 33 33 33 33 33 33 33 33 33 32 32 33 33 33 33 32 32 31 30 30 29 29 30 30 30 30 30 30 30 30 30
34 34 33 33 33 33 32 32 32 32 32 32 32 33 33 32 32 32 33 33 32 31 31 31 31 30 30 30 30 30 31 31 31 30 30 30 30 29
33 33 33 32 32 31 31 31 31 31 31 32 32 31 31 30 31 32 32 31 31 30 30 30 30 31 31 31 31 31 30 31 31 31 30 30 30 29
33 33 32 32 32 31 31 31 30 30 30 31 31 30 29 29 29 30 29 29 29 30 30 30 30 31 31 32 31 30 30 30 30 30 30 30 29 29
32 32 32 31 31 31 31 30 30 30 30 30 30 29 29 29 29 29 29 29 29 30 30 30 30 30 31 31 31 31 30 30 30 29 29 30 29 28
Wind_Direction
288 290 293 290 289 288 288 287 285 285 286 286 284 282 278 277 277 277 277 276 275 272 271 271 269 269 269 268 266 267 268 270 271 270 270 272 274 275
288 289 289 288 288 287 287 288 287 286 285 286 286 286 282 280 280 280 278 277 275 273 271 271 269 267 268 267 267 266 267 270 271 271 271 272 274 275
286 287 288 288 287 286 287 288 288 289 286 285 284 283 281 280 280 280 277 275 275 274 273 272 269 268 267 265 266 266 267 269 270 272 272 273 274 275
287 287 287 287 287 286 287 287 289 290 289 287 285 281 281 281 281 280 278 274 272 275 275 274 271 269 266 264 264 266 268 269 270 270 271 272 273 274
288 287 286 285 286 286 287 287 288 289 290 289 287 284 283 283 281 282 279 278 277 276 276 274 270 268 266 266 265 265 267 269 270 271 272 273 274 275
286 287 287 285 285 286 287 288 289 289 289 290 288 286 284 283 281 282 281 278 278 278 278 276 271 269 269 268 268 267 267 267 268 271 272 273 275 275
289 288 287 287 286 287 286 287 287 287 288 287 287 286 285 284 282 282 280 279 279 278 277 276 274 273 272 271 270 270 269 268 268 270 272 273 274 275
290 288 288 287 286 286 286 285 285 286 287 286 285 284 284 283 282 281 280 279 278 276 277 277 276 274 273 272 271 270 270 269 269 271 272 272 273 273
290 289 289 288 286 286 286 285 285 285 285 285 284 283 283 282 281 281 280 279 279 278 277 277 277 275 273 272 270 270 269 268 269 270 272 273 274 274
289 288 288 286 285 285 286 286 285 285 285 284 283 282 281 281 281 281 281 281 280 280 280 279 277 277 274 273 273 272 271 269 268 269 271 273 274 274
289 289 288 287 287 285 285 285 284 284 284 283 282 281 281 280 280 280 279 280 279 279 280 279 279 278 276 274 272 272 271 271 271 270 270 271 271 271
288 288 288 288 288 287 285 284 284 284 284 283 283 281 280 279 278 277 278 279 278 278 277 277 278 277 275 275 275 273 271 269 268 268 269 270 270 270
288 289 288 288 287 286 285 285 285 284 284 283 283 282 280 278 277 276 277 278 278 278 276 276 276 275 274 274 273 272 270 268 267 266 266 268 269 269
289 289 288 287 286 286 285 285 284 284 283 282 281 280 278 276 276 276 275 276 276 277 277 276 275 274 273 273 272 270 267 268 268 267 266 266 266 266
288 287 287 286 285 285 284 284 282 282 282 280 278 278 277 275 275 274 274 275 276 277 277 276 275 273 271 271 270 269 267 266 266 266 267 267 266 265
289 288 288 287 286 285 284 284 282 281 282 280 278 276 276 275 275 274 274 275 275 276 277 276 276 272 270 270 268 266 266 265 264 266 268 267 266 266
289 289 288 288 287 285 285 284 282 282 281 280 280 277 276 275 275 274 273 274 275 275 276 276 275 273 269 268 268 268 267 265 265 265 266 266 266 267
290 290 289 288 287 286 285 284 283 281 281 281 280 280 278 276 275 274 274 274 275 275 274 274 273 272 271 270 268 267 266 265 265 265 264 265 265 266
290 290 289 288 287 287 286 284 283 282 281 281 280 280 279 277 275 274 274 274 275 274 273 272 271 270 269 268 268 267 266 265 264 264 263 263 263 264
290 290 289 288 288 287 286 285 284 283 282 281 281 281 280 278 277 275 275 274 273 273 273 271 270 269 268 267 266 266 265 265 264 263 263 263 263 263
289 289 288 287 287 287 286 285 284 283 282 282 282 281 281 280 279 278 275 273 273 273 273 272 270 269 267 267 266 267 265 266 265 263 263 263 261 261
288 287 286 286 285 285 286 285 284 283 282 282 282 282 281 281 280 278 275 274 274 273 273 272 271 270 268 267 266 267 264 265 265 263 262 261 260 259
288 288 286 285 284 284 285 285 284 284 283 282 281 283 282 281 280 279 276 276 275 274 273 273 272 271 270 270 268 266 265 264 264 262 262 262 260 259